GFSCGP_sfc_dewp_036.txt.gz
Dewpoint
25 20 19 19 21 20 17 16 14 17 27 25 22 29 39 42 47 53 57 60 59 60 63 64 65 67 69 69 69 67 67 64 65 65 64 65 65 67 67 70 70 72 71 70
19 17 20 23 22 18 16 16 10 17 26 25 24 23 28 46 50 53 57 58 59 60 63 64 67 70 69 69 69 67 64 65 65 65 67 67 67 67 67 69 69 71 71 70
19 17 24 23 20 15 10 11 12 13 24 17 26 24 25 33 51 54 57 59 59 61 62 64 66 69 71 69 68 67 65 65 64 66 65 65 66 66 67 67 69 70 69 69
19 18 16 20 24 16 13 17 23 25 18 13 22 19 27 32 45 54 57 59 60 62 63 65 66 67 70 69 68 66 65 64 65 66 65 64 64 63 67 68 68 68 69 69
23 22 21 23 19 17 11 22 25 28 21 18 21 24 27 36 40 49 57 58 60 63 64 65 66 66 71 69 67 65 64 65 66 66 66 64 63 65 67 67 66 67 68 69
22 26 23 20 24 22 25 20 23 27 20 16 20 26 28 31 38 44 50 53 60 64 64 65 66 69 70 71 68 66 66 65 66 67 68 67 67 67 66 66 66 66 67 67
24 26 25 23 21 21 19 19 18 20 21 18 29 29 29 35 39 41 43 43 62 63 63 64 65 67 68 70 71 71 70 69 68 67 69 69 68 67 66 66 65 64 64 65
22 22 25 26 19 18 18 17 19 19 19 22 32 25 32 41 42 45 45 57 62 62 63 64 65 65 67 69 70 70 70 69 69 69 68 68 68 67 67 66 65 64 64 66
24 25 28 26 19 19 23 21 21 19 23 20 24 33 37 40 46 51 52 58 61 62 63 64 64 64 66 69 70 69 69 69 68 68 68 67 67 66 66 65 65 64 66 68
22 21 22 26 20 24 17 20 16 21 20 19 24 33 32 39 47 50 55 55 57 59 61 62 63 64 65 69 69 70 69 68 67 67 68 68 67 67 66 65 64 64 66 66
23 22 20 27 23 19 20 20 19 19 24 19 19 25 44 45 50 50 52 55 55 57 61 62 63 65 66 68 69 70 69 69 68 67 67 67 66 67 66 65 64 65 65 64
23 24 24 21 26 28 23 20 20 21 16 24 22 31 48 49 54 50 50 51 56 56 59 63 63 65 64 65 66 67 67 67 68 67 67 67 65 66 65 64 64 66 64 64
27 22 19 20 22 25 25 24 27 26 29 25 27 34 50 52 48 46 47 46 50 58 60 62 64 64 61 57 60 63 66 67 67 67 67 66 65 65 64 64 64 64 64 64
40 30 21 19 22 29 28 26 29 26 24 23 26 43 48 48 44 49 52 54 56 56 62 63 63 64 57 58 63 64 66 67 67 67 67 65 65 65 65 64 64 64 64 63
31 29 29 29 29 28 28 27 28 27 25 22 24 37 47 50 52 53 54 54 56 56 62 64 64 63 58 59 62 63 65 66 67 67 67 66 66 65 65 64 63 64 63 62
30 24 30 24 31 32 31 31 31 29 29 31 38 43 48 52 52 54 55 55 54 57 58 65 65 59 58 61 62 63 65 65 66 67 67 67 66 65 64 63 62 63 62 61
42 33 28 27 33 33 27 31 33 37 43 38 33 42 49 51 55 54 56 55 57 58 60 65 64 60 60 61 62 60 61 65 66 67 68 67 66 65 64 63 63 62 61 60
39 41 40 35 35 31 33 36 47 49 48 47 47 51 54 53 55 54 55 51 49 54 61 66 66 66 64 63 61 63 65 65 66 67 68 67 67 65 65 63 62 62 62 58
39 37 34 33 34 34 32 38 34 47 51 49 49 55 57 58 57 55 53 52 55 63 64 66 67 66 66 64 65 65 64 64 65 66 66 68 67 65 65 64 63 62 61 60
29 38 33 32 30 29 34 41 50 51 49 55 54 56 56 56 49 51 57 63 66 64 64 64 64 65 65 64 64 62 60 60 63 62 63 64 67 65 64 63 62 62 61 60
22 25 30 32 30 33 37 41 41 31 35 55 55 54 53 55 50 49 63 62 62 62 61 61 61 61 62 62 64 60 61 62 60 60 62 61 62 65 64 64 63 63 60 58
24 24 29 33 32 28 40 48 38 42 56 56 53 52 54 56 59 60 61 60 61 60 60 60 59 59 60 60 61 60 60 60 59 59 59 58 58 60 64 64 63 61 59 56
33 28 27 28 32 46 59 57 55 54 55 57 54 55 55 59 59 59 58 58 58 59 58 58 57 57 58 59 60 58 57 58 58 57 57 57 55 56 58 60 60 58 57 55
42 46 42 39 54 57 59 60 61 61 60 61 61 59 59 58 60 59 58 58 57 57 56 56 55 54 55 57 58 58 56 56 56 54 53 53 53 53 54 54 55 55 54 53
42 47 47 49 52 55 56 57 58 61 61 62 62 62 60 60 59 58 58 58 58 58 57 56 55 57 57 58 58 57 55 53 52 51 51 51 50 50 49 48 50 51 49 52
48 47 47 47 52 53 54 57 59 61 60 61 61 61 62 60 59 58 58 60 60 60 58 56 55 56 57 57 57 56 55 53 51 50 50 50 49 49 49 49 47 44 45 43

GFSCGP_sfc_dewp_039.txt.gz
Dewpoint
21 20 15 18 21 22 20 18 15 14 23 27 26 30 40 54 56 57 57 59 60 61 63 64 68 69 69 68 69 68 67 66 64 63 64 65 64 66 66 68 70 70 71 70
19 15 18 24 23 22 20 11 9 13 18 23 24 25 32 43 54 56 57 59 60 61 62 65 69 68 68 68 67 65 65 64 64 64 66 66 66 66 67 68 69 69 71 70
18 17 22 23 21 17 11 12 14 16 18 19 21 20 25 33 42 51 56 59 60 60 62 64 68 67 68 68 67 65 64 64 63 65 65 65 66 66 66 67 69 69 69 69
19 20 20 18 18 15 13 15 24 27 18 13 23 17 26 31 40 53 58 58 59 62 63 66 69 68 68 68 68 66 64 64 64 65 63 63 63 63 66 67 67 68 69 68
21 25 22 24 19 15 14 22 27 27 21 18 20 22 25 34 48 53 57 58 60 62 64 66 69 69 69 69 67 66 64 63 65 65 64 64 63 64 66 66 66 66 66 67
22 25 25 23 24 22 22 18 22 27 20 14 17 24 27 30 38 47 58 59 61 63 65 66 68 69 68 67 66 64 63 63 65 65 66 65 64 67 65 65 65 65 65 65
22 24 27 25 23 21 18 17 16 16 20 17 28 29 29 34 41 44 55 56 62 63 64 65 69 69 68 66 65 64 63 63 64 66 66 67 68 66 65 64 63 63 63 64
22 20 24 28 22 20 20 16 17 14 20 20 28 24 30 43 49 47 48 52 63 63 64 65 68 68 69 69 68 67 66 66 66 66 67 68 67 66 65 64 63 63 64 65
24 24 28 26 22 20 24 18 19 20 25 20 23 30 36 43 51 55 58 61 62 63 64 65 66 67 69 70 70 70 69 68 68 68 67 67 66 66 64 64 63 63 65 66
22 18 21 25 22 24 19 21 17 19 20 23 23 30 30 39 44 51 56 58 60 63 64 65 66 66 69 69 69 69 69 68 68 68 67 66 66 65 64 64 63 64 64 64
24 20 20 23 23 19 20 19 20 19 21 17 17 20 40 45 45 48 54 57 60 62 63 64 64 66 68 69 69 69 68 68 68 67 67 66 66 65 64 63 64 64 63 63
23 21 19 20 25 27 22 20 19 19 20 23 21 24 43 49 48 51 54 55 56 58 62 64 64 66 67 68 68 67 67 67 68 67 67 66 66 64 63 63 64 63 63 63
24 22 19 19 21 23 25 25 27 25 24 24 21 22 47 50 51 51 51 54 57 58 61 63 64 64 65 64 63 66 64 65 67 67 66 65 65 64 63 63 63 63 63 62
36 24 20 18 20 26 25 27 26 24 23 22 25 28 45 48 47 47 48 54 56 56 62 63 64 63 60 60 61 64 66 66 67 67 66 64 64 64 63 63 63 63 62 61
28 29 28 26 27 25 26 29 29 26 25 23 24 38 42 49 49 49 53 54 54 54 62 63 63 61 59 60 62 63 65 66 67 67 66 64 64 64 63 63 63 62 61 60
30 27 26 28 32 31 28 31 30 34 29 34 36 41 48 51 51 51 52 54 55 55 57 63 64 61 60 61 62 63 64 65 66 67 66 65 65 64 63 63 62 61 60 59
42 29 23 17 34 25 20 31 37 46 47 42 36 38 49 49 51 52 52 54 54 58 57 64 65 62 60 62 63 62 63 65 66 67 67 66 66 65 63 63 62 60 59 57
39 40 35 32 29 19 25 47 47 48 50 48 47 48 49 52 54 55 55 54 58 56 59 63 65 62 61 62 63 63 64 66 66 66 67 66 66 65 65 64 63 60 58 57
37 37 33 31 31 29 33 47 44 40 45 51 51 56 55 56 56 51 56 55 63 65 65 65 66 63 63 62 63 64 64 65 66 65 67 68 67 66 65 63 62 62 59 57
32 35 33 31 30 26 32 42 50 45 42 50 55 56 54 54 43 45 57 62 63 62 63 64 64 65 64 63 64 63 63 62 62 63 63 65 67 66 64 63 63 62 60 58
22 25 28 33 29 30 35 42 49 27 30 49 54 56 53 50 48 50 62 62 62 61 61 62 62 62 62 63 63 61 61 60 60 60 62 62 62 66 65 63 63 62 58 55
22 23 26 32 29 24 41 46 34 32 50 48 52 53 52 54 56 58 61 60 61 60 60 60 60 59 60 61 60 59 59 60 61 61 60 58 58 63 64 64 62 60 57 53
33 28 28 30 31 44 57 54 55 54 54 54 52 52 53 56 58 60 59 58 59 59 58 58 59 58 59 60 60 59 58 59 58 59 57 56 56 57 63 62 60 58 56 54
40 46 44 45 53 56 57 58 60 60 58 59 57 57 57 57 59 58 58 57 57 56 56 54 56 57 56 58 58 57 57 57 56 55 56 55 54 55 56 56 57 56 55 54
40 45 46 48 52 53 54 56 58 60 61 61 62 61 60 60 59 59 58 57 57 56 54 54 56 57 57 57 57 57 55 54 53 52 52 51 51 51 50 48 51 52 51 53
47 45 46 46 50 51 53 56 58 59 60 61 61 61 61 60 59 58 58 58 58 58 55 55 56 56 57 57 56 55 54 53 52 52 52 51 51 50 50 50 48 45 45 44

GFSCGP_sfc_dewp_042.txt.gz
Dewpoint
20 17 14 16 23 21 22 20 18 16 19 28 29 30 38 55 57 57 58 60 61 61 64 66 69 69 69 69 70 69 67 67 66 65 65 65 65 65 67 69 70 71 72 71
17 14 17 22 23 24 25 22 10 15 19 23 25 29 42 53 55 57 57 59 60 61 63 67 68 68 68 68 69 68 67 66 64 64 66 66 66 67 67 68 69 71 71 71
16 16 22 22 22 21 13 8 12 19 20 21 24 22 26 38 40 48 58 59 60 61 62 66 67 68 68 68 67 66 66 65 64 66 66 66 67 67 68 68 68 69 70 70
18 20 22 23 18 16 16 15 21 27 20 12 23 15 25 33 37 50 56 59 60 61 63 65 67 67 68 68 68 67 65 64 65 65 65 64 65 65 66 68 68 68 68 68
19 23 24 23 21 17 16 21 26 25 21 19 20 19 23 32 41 52 57 59 60 62 63 65 67 67 68 68 68 68 65 64 65 65 65 65 65 66 67 67 67 67 67 67
21 25 23 21 25 19 21 18 21 25 18 11 18 22 23 30 34 39 59 59 61 62 65 67 69 68 68 68 68 66 64 63 65 66 66 65 68 66 66 66 65 65 66 67
23 22 25 26 22 23 18 17 15 13 19 16 27 30 28 34 42 44 51 59 62 64 65 68 68 68 67 67 66 65 64 63 65 66 67 68 68 66 66 65 64 64 65 66
19 17 25 25 23 21 19 16 16 10 15 20 27 24 29 41 47 52 52 60 63 64 65 67 68 68 67 66 65 64 63 63 64 65 67 69 67 66 65 65 64 65 66 65
21 22 27 27 22 21 24 17 19 21 21 20 22 28 35 41 49 53 59 62 63 64 64 67 68 69 68 67 67 66 65 66 66 67 68 67 67 66 65 65 65 66 66 66
21 17 21 25 23 23 23 22 19 20 20 20 22 27 31 40 44 49 58 59 62 64 64 66 68 68 69 69 69 70 69 69 69 68 67 66 66 66 65 65 65 64 65 65
23 20 19 24 25 20 21 20 20 20 20 17 17 20 35 39 43 50 55 58 60 63 64 65 66 67 69 69 69 69 69 68 67 67 67 66 66 65 65 64 65 64 64 64
23 20 19 18 24 29 24 20 20 20 18 23 21 22 35 47 48 51 53 55 56 59 63 65 65 67 68 68 68 67 68 68 67 68 66 66 66 65 64 65 64 64 63 63
23 21 19 19 21 27 26 28 24 24 25 26 22 22 48 50 51 52 52 55 56 58 60 64 65 66 67 67 67 67 67 66 66 67 66 66 65 64 64 65 64 64 63 62
34 21 20 18 20 25 28 28 28 24 24 24 24 25 30 46 48 49 50 53 54 55 61 63 64 64 66 65 66 64 64 63 66 67 66 66 65 64 64 64 64 63 62 61
26 19 23 24 23 26 25 28 28 27 26 25 27 27 31 41 49 50 53 54 54 53 63 63 63 63 63 63 63 65 65 63 66 67 66 65 65 65 64 64 64 63 62 60
32 28 28 29 32 29 29 32 31 31 28 35 36 34 39 49 51 51 52 53 55 56 59 63 64 63 61 62 62 64 65 66 67 67 66 65 65 65 64 64 62 62 60 59
38 28 23 25 35 27 26 32 37 44 46 37 34 35 49 49 50 50 52 55 55 54 58 62 64 63 62 62 63 63 64 66 67 67 66 66 66 65 64 64 62 61 60 59
39 39 33 32 28 18 25 49 44 45 49 48 47 46 50 52 53 55 57 54 59 63 63 61 65 63 61 63 64 64 65 66 66 67 66 66 65 65 65 64 63 62 59 58
38 36 34 29 28 29 42 47 44 38 39 50 49 52 52 54 53 51 55 59 63 63 62 65 66 63 61 62 63 64 65 66 66 67 66 66 66 65 65 64 63 62 60 58
28 35 32 31 28 27 31 40 50 43 35 49 54 53 52 54 46 50 57 63 63 62 62 63 64 63 62 62 64 64 65 65 64 66 67 66 66 64 65 64 63 63 60 58
24 28 30 33 29 30 35 42 48 30 33 49 53 54 54 50 48 59 62 62 62 61 61 62 62 61 63 63 64 63 62 60 62 62 63 63 64 66 65 64 64 62 59 56
23 24 26 31 28 25 53 44 33 35 43 48 53 55 54 55 59 60 61 61 60 60 60 60 60 59 61 62 61 59 58 60 62 62 60 60 60 62 65 64 63 60 57 54
31 30 32 29 29 44 56 56 57 54 54 54 52 53 54 57 59 60 59 59 59 58 58 59 59 59 59 60 61 59 59 59 60 59 58 58 58 58 63 63 61 59 56 54
39 44 41 46 49 55 56 56 58 60 59 58 55 56 55 57 59 59 59 58 58 57 56 57 58 57 57 58 58 57 58 58 58 57 56 56 55 56 56 59 59 57 56 54
38 45 47 46 51 53 54 56 57 60 61 61 61 60 59 59 59 58 57 57 57 57 55 56 57 57 57 57 57 57 56 55 54 54 53 53 52 52 50 49 52 54 53 55
48 44 44 45 49 51 52 56 60 59 61 61 61 60 61 59 59 59 58 58 57 56 56 56 57 57 57 57 56 55 55 55 54 53 53 52 52 52 52 51 49 45 45 45

GFSCGP_sfc_dewp_045.txt.gz
Dewpoint
24 15 10 22 22 21 21 20 20 21 18 27 32 33 35 56 57 57 59 62 62 62 64 66 67 68 70 71 72 73 71 70 70 69 69 68 68 67 69 70 72 72 74 72
19 12 17 20 22 21 22 21 16 20 22 26 26 27 33 52 55 56 58 60 61 61 64 66 68 69 70 71 72 73 72 71 69 67 68 68 68 69 69 71 71 72 73 73
14 15 20 19 21 19 18 15 15 22 23 24 25 26 31 38 53 50 57 59 61 61 63 66 68 69 69 70 71 72 72 70 67 69 68 69 69 68 70 71 71 71 72 72
18 18 19 21 20 17 20 18 14 23 23 19 28 17 33 32 35 47 54 54 59 61 63 67 68 69 69 70 71 72 70 69 68 69 68 68 67 69 70 70 70 69 70 69
15 22 21 20 22 20 21 18 24 24 24 24 23 17 27 36 39 39 54 55 57 60 63 65 67 68 70 70 70 70 69 69 68 69 69 68 69 69 69 69 70 70 70 70
22 24 22 20 22 20 25 22 26 27 21 15 26 26 25 32 38 41 44 58 58 61 63 65 68 69 69 70 69 69 69 69 69 68 69 69 71 70 69 69 67 67 69 69
21 20 23 25 22 22 21 22 20 16 15 15 31 30 33 35 42 47 48 50 60 62 64 67 68 68 69 69 69 69 68 68 68 67 67 71 70 70 70 68 66 67 66 66
16 15 22 26 25 24 22 24 20 16 14 20 31 27 29 39 48 55 52 51 60 62 64 66 67 68 69 69 69 69 68 67 68 68 70 72 71 68 67 68 67 66 66 66
24 19 26 26 22 24 25 24 23 27 27 21 25 30 35 42 49 54 58 61 62 63 64 66 69 69 69 69 69 68 68 67 67 68 71 71 70 68 67 69 68 66 68 65
27 21 21 24 23 25 27 26 22 26 26 21 24 29 29 39 45 51 58 59 63 64 65 67 69 69 69 69 69 68 67 68 69 70 71 70 69 68 68 68 67 68 67 67
25 26 22 25 24 24 23 23 26 26 27 21 19 21 41 44 47 49 55 58 61 63 65 67 69 70 70 69 69 71 71 70 68 68 68 68 67 67 67 67 67 67 66 66
26 26 23 20 24 25 24 27 31 23 31 28 26 20 36 42 47 51 52 57 58 60 64 67 68 70 70 69 70 71 70 69 69 68 67 68 67 67 67 66 66 66 65 65
29 30 22 23 25 28 27 25 28 34 35 34 23 24 44 49 50 51 52 56 56 58 62 66 68 69 69 69 69 70 70 69 67 68 68 68 66 66 67 67 66 66 65 64
40 34 32 16 25 30 31 28 27 32 29 32 26 29 35 40 49 51 52 53 54 57 62 65 68 69 69 70 70 70 69 68 67 68 68 68 67 66 66 67 66 65 65 64
35 35 30 26 23 26 27 27 27 30 33 25 31 32 35 44 50 52 52 53 53 55 64 65 67 68 69 69 69 67 65 66 66 68 67 68 68 67 67 66 66 65 64 63
36 36 33 29 27 25 26 29 29 28 29 31 31 34 46 51 52 52 52 52 54 55 57 65 66 67 67 68 68 67 65 63 65 67 68 68 68 67 67 67 65 65 64 63
40 37 35 29 32 30 27 31 31 33 32 35 32 39 47 51 52 52 53 53 54 54 56 60 66 67 67 67 67 66 67 64 65 67 68 67 67 66 67 66 65 64 63 63
45 43 39 33 32 26 32 47 41 41 43 44 45 48 50 53 55 56 57 54 60 64 64 61 66 67 67 66 65 66 67 66 66 69 67 68 67 66 67 66 65 64 63 62
44 42 38 33 27 32 36 45 42 39 36 47 47 50 51 54 52 54 59 62 62 63 63 64 67 68 66 65 65 66 67 68 68 68 66 67 67 66 66 66 64 63 63 61
37 46 36 37 26 25 35 41 46 44 35 48 51 51 51 54 46 51 60 62 62 63 63 64 66 67 66 65 66 66 66 67 67 68 67 67 68 66 67 65 65 64 63 61
32 36 34 35 32 33 39 43 46 33 36 44 52 53 53 50 54 62 62 63 63 62 62 63 64 64 65 65 66 65 66 67 66 66 66 67 67 67 66 65 65 63 62 60
29 31 32 35 33 28 56 48 38 49 54 54 55 56 56 59 61 61 62 62 62 62 62 62 62 62 63 65 66 63 62 63 63 64 64 65 66 66 67 66 64 62 60 57
33 39 36 35 34 52 58 58 60 61 58 56 56 57 58 60 60 61 61 61 61 61 61 62 62 62 62 63 63 61 61 63 62 62 62 62 62 63 65 65 63 60 58 56
44 47 45 47 53 56 57 58 60 62 60 59 56 57 58 59 61 60 61 61 61 60 60 59 60 60 60 61 60 61 61 61 62 61 60 59 59 58 59 62 61 58 57 55
41 48 49 51 52 55 55 58 61 62 62 61 60 59 59 61 61 62 62 61 60 60 60 60 60 60 60 60 60 59 59 58 57 56 56 55 55 54 51 49 53 56 56 56
49 47 45 49 53 56 55 59 60 62 61 61 61 62 62 62 61 62 61 61 60 60 60 59 60 59 59 58 58 58 58 58 57 57 56 55 54 54 53 52 50 46 46 46

GFSCGP_sfc_dewp_048.txt.gz
Dewpoint
21 17 23 27 27 25 26 25 22 17 18 23 28 30 30 44 50 51 56 59 59 60 62 64 67 69 69 71 73 74 73 72 71 69 69 70 68 68 67 70 72 73 74 73
15 12 20 20 22 23 27 26 21 19 23 27 28 30 31 37 47 50 54 57 59 59 62 64 67 68 69 71 73 74 73 72 72 70 70 69 69 67 69 70 73 72 73 72
8 12 15 18 19 21 25 23 18 18 23 22 24 28 30 38 47 49 51 55 58 59 61 64 66 68 68 71 73 73 73 74 72 70 69 69 68 68 68 70 70 72 72 72
9 12 15 15 14 19 19 17 16 16 19 17 23 16 28 25 30 40 46 49 55 59 61 65 67 68 69 70 72 73 74 73 71 71 68 69 64 65 70 70 71 71 71 71
9 11 15 16 12 19 18 15 16 20 18 20 20 16 22 30 33 37 46 49 52 57 60 63 66 68 70 70 71 72 73 72 71 70 69 68 69 69 69 69 71 73 72 70
17 21 19 14 23 20 23 24 24 20 14 15 22 17 14 25 35 37 42 54 53 56 60 63 66 69 70 70 70 71 72 72 70 70 70 71 72 71 70 72 68 67 67 67
16 17 17 22 21 23 22 20 16 16 12 13 29 23 22 33 37 43 46 48 56 58 60 64 68 69 70 70 70 70 72 71 70 69 70 72 72 72 70 69 66 66 65 66
14 11 18 22 22 20 21 18 15 19 13 14 30 20 27 36 40 49 53 51 58 60 62 64 67 68 68 68 70 70 71 70 69 69 70 73 72 69 68 68 67 66 65 65
14 11 17 22 23 25 25 21 20 20 22 14 17 23 25 37 43 49 53 58 61 62 63 65 67 67 68 70 70 70 71 69 69 69 72 72 72 70 68 68 68 66 68 66
22 19 16 23 24 25 26 24 20 19 20 20 20 21 25 30 38 49 54 60 63 64 64 66 66 67 69 69 70 69 70 69 69 70 72 71 70 70 69 68 67 67 67 68
18 23 21 26 25 22 24 23 25 21 25 19 19 20 31 33 43 51 55 58 61 62 63 66 67 68 67 67 68 69 69 70 70 71 68 68 68 68 68 67 67 67 67 68
21 21 20 16 25 25 25 25 26 21 32 22 26 21 30 38 48 49 54 57 59 62 64 67 68 69 67 67 68 71 71 70 69 69 68 68 69 67 66 66 66 66 66 67
23 21 22 21 21 27 25 25 29 30 36 30 21 23 40 45 47 50 55 57 59 60 66 68 68 69 68 68 70 71 71 69 68 68 69 69 67 66 66 66 66 66 65 65
39 24 28 13 19 21 29 28 27 31 25 27 22 26 31 38 44 52 54 55 55 57 62 66 69 69 70 70 70 71 70 66 66 67 68 67 66 66 66 66 66 66 65 64
29 31 27 20 18 23 24 25 24 28 27 26 25 25 39 47 49 52 52 53 53 56 61 64 68 70 70 70 70 69 69 67 67 68 68 68 67 67 67 66 65 65 65 64
33 31 28 20 16 16 21 24 27 27 29 29 25 31 46 50 52 53 53 52 53 54 59 65 67 69 70 70 69 68 66 66 67 67 68 68 68 67 66 66 66 65 65 64
37 31 35 21 21 19 21 23 25 28 29 27 27 43 46 51 51 52 53 52 53 54 57 62 67 68 69 69 69 68 66 65 67 67 68 69 68 68 68 67 66 65 65 65
44 43 35 21 33 24 26 35 26 27 30 34 42 48 49 52 54 56 57 55 61 64 62 60 65 68 68 68 69 69 68 65 65 68 69 69 69 67 68 68 67 67 65 64
44 41 33 32 26 26 35 40 38 37 34 41 37 49 51 52 54 56 59 62 62 64 65 66 67 69 69 68 68 67 67 65 65 67 69 69 68 67 68 67 66 66 64 64
42 49 36 33 26 25 38 43 44 42 36 48 49 50 51 52 46 52 60 64 63 64 65 66 68 69 69 69 68 67 67 66 65 68 69 68 68 68 67 67 67 65 66 65
35 35 30 30 28 35 43 44 41 34 40 47 51 52 52 52 58 61 63 64 64 64 64 65 66 68 69 69 68 66 66 66 67 69 69 69 69 69 68 67 66 67 67 65
32 29 28 34 30 31 53 44 38 55 55 53 52 54 55 59 59 60 61 63 64 65 64 64 65 65 67 68 67 67 67 67 67 67 67 68 68 68 65 67 66 65 64 62
33 43 33 37 37 56 57 57 59 60 59 57 55 55 57 57 58 59 60 62 63 63 64 64 64 64 65 66 67 65 65 65 66 66 66 67 67 67 68 68 68 65 63 60
46 48 41 43 52 54 58 59 61 62 60 58 57 57 57 58 59 60 62 63 63 63 62 62 63 63 62 63 64 64 64 64 64 64 64 64 65 64 63 66 65 62 60 58
41 47 46 44 52 54 57 60 62 62 61 60 58 57 57 59 59 61 63 63 62 62 62 62 62 61 61 62 62 61 62 62 62 62 61 60 60 59 55 50 53 59 59 58
42 45 37 42 55 56 58 61 62 61 60 60 59 59 60 60 60 61 61 62 62 61 62 62 62 61 61 61 61 61 61 61 61 60 60 59 58 56 55 53 50 46 46 46

GFSCGP_sfc_dewp_051.txt.gz
Dewpoint
15 13 20 24 25 24 24 28 23 20 18 19 22 26 28 33 34 41 51 56 56 57 60 63 65 66 67 70 73 75 75 74 72 70 71 69 68 68 68 71 70 74 74 73
14 12 15 21 26 24 24 25 23 21 18 20 25 26 27 28 33 36 45 52 56 56 60 63 66 67 68 70 73 74 75 75 73 70 71 69 69 67 68 70 72 74 72 74
12 7 7 18 24 25 22 24 24 20 21 19 22 24 29 29 31 38 40 47 54 56 59 62 65 68 68 70 73 74 75 74 74 72 70 70 69 69 66 69 69 70 72 72
9 6 11 12 16 20 24 23 20 16 17 15 22 18 31 29 28 31 35 42 50 56 59 63 65 67 68 69 72 74 75 75 74 72 69 70 66 64 71 77 73 74 71 70
11 5 9 11 13 17 15 17 17 17 17 19 19 15 26 27 24 30 37 45 47 55 57 62 64 67 69 69 71 73 75 75 72 72 71 69 69 67 68 75 72 74 73 69
9 11 6 7 9 10 14 19 19 19 16 15 20 16 18 22 32 31 42 48 50 54 57 61 65 68 69 70 71 72 74 74 72 71 71 72 71 72 72 70 72 65 65 66
12 14 12 12 15 17 17 20 18 18 13 12 22 19 21 31 34 34 41 50 51 54 57 61 66 69 70 70 70 71 73 73 71 70 70 72 72 73 72 70 66 68 63 64
13 9 11 15 16 17 17 17 15 20 14 15 25 17 21 32 34 43 45 46 52 53 58 61 66 68 69 69 70 70 72 73 71 69 71 73 74 72 68 69 67 65 63 64
14 13 9 13 15 16 20 18 15 19 20 16 15 22 29 29 33 43 48 52 53 55 59 63 66 67 68 69 70 70 72 71 70 69 71 73 74 71 70 70 69 67 68 67
18 19 12 13 19 20 21 22 16 18 21 20 16 21 27 32 34 46 52 56 59 59 61 64 65 66 67 69 70 70 71 71 69 69 71 73 70 71 69 68 68 67 68 69
14 22 17 18 21 19 19 22 22 17 24 19 20 22 33 34 41 47 52 57 58 57 60 63 64 66 67 67 68 69 70 70 70 71 67 66 69 69 71 68 66 67 70 70
15 18 18 19 19 18 19 23 22 20 27 23 22 23 25 39 43 47 53 56 57 57 58 63 65 67 66 66 67 68 70 71 72 68 67 66 67 69 67 66 66 66 68 67
17 17 19 20 17 22 22 23 25 27 30 30 25 20 33 39 44 47 54 55 57 60 63 65 67 67 66 67 71 70 70 70 69 68 66 66 68 67 67 65 66 66 65 65
35 24 25 14 20 19 24 20 20 24 24 26 22 32 34 34 45 51 54 56 57 59 65 67 68 69 68 70 70 71 70 67 67 66 66 69 70 66 65 66 66 65 65 64
25 30 25 20 17 17 18 19 22 21 23 25 30 34 42 43 47 51 53 54 52 55 58 63 67 69 71 70 69 69 67 66 66 66 67 68 68 67 66 65 65 65 65 64
28 30 29 21 17 15 18 20 24 23 23 24 28 38 51 50 51 51 52 51 52 54 59 61 65 67 70 69 67 67 66 66 67 67 67 68 69 67 67 66 65 65 65 65
35 32 32 26 20 18 17 19 24 26 26 28 27 46 48 51 51 52 52 51 51 52 56 63 66 68 70 69 67 66 66 66 67 66 67 68 69 68 68 67 66 65 65 65
43 44 37 25 27 20 19 18 20 25 28 29 42 44 42 51 53 55 55 53 58 61 59 59 65 67 69 69 67 67 65 66 66 67 68 69 70 69 68 68 67 68 66 66
39 42 33 28 22 23 24 30 26 25 27 30 42 46 50 52 54 56 59 61 61 63 65 67 69 69 69 68 69 68 67 66 65 67 69 70 69 69 68 68 67 67 67 65
38 46 39 32 27 27 30 30 30 29 31 43 42 46 48 51 40 47 59 62 63 64 66 67 68 70 69 70 70 69 68 66 64 65 69 70 70 69 68 69 68 68 66 64
34 39 35 32 29 35 43 43 41 35 41 48 47 49 51 48 58 59 60 63 65 66 65 67 69 70 70 70 70 68 67 66 66 68 69 70 69 70 69 69 67 66 68 65
33 34 29 30 36 38 48 45 49 53 53 47 49 50 54 60 58 58 61 63 64 65 65 66 67 69 69 69 70 69 67 70 70 70 69 70 69 69 68 69 67 66 68 66
33 44 45 41 47 58 55 58 59 59 56 52 52 52 54 55 55 57 61 62 63 64 65 65 65 66 67 68 69 69 69 68 68 68 68 69 70 69 70 70 69 66 67 65
41 45 36 41 47 53 55 58 60 60 59 55 54 53 53 55 57 58 61 62 63 63 63 63 64 63 63 65 66 66 66 66 65 66 67 67 67 66 67 66 69 67 64 65
41 39 43 38 48 50 58 61 62 61 60 57 57 56 57 59 59 61 63 63 62 63 63 63 63 62 62 63 63 63 64 64 64 65 64 64 63 62 58 53 52 61 61 60
35 46 39 49 55 53 60 61 60 59 58 58 57 58 58 59 60 60 61 62 62 61 62 62 63 62 62 62 62 63 63 63 63 62 62 61 61 59 56 54 52 47 47 49

GFSCGP_sfc_dewp_054.txt.gz
Dewpoint
17 10 13 22 26 25 35 34 36 37 37 18 17 22 29 33 32 38 51 56 55 57 59 62 63 66 68 72 75 76 77 77 75 75 74 71 69 68 68 70 72 72 72 73
12 9 12 16 21 22 25 31 33 35 29 18 19 23 23 31 32 32 42 54 54 54 60 63 67 67 69 72 75 77 77 76 76 75 76 75 73 69 69 72 72 72 74 74
10 10 10 10 16 20 24 23 22 21 20 19 18 23 26 32 28 30 30 47 55 55 60 64 66 68 68 72 75 77 77 76 75 76 74 73 73 73 71 72 75 75 74 75
9 8 8 7 12 18 24 20 21 20 20 15 22 22 35 36 33 30 32 34 46 55 62 65 67 69 69 71 74 77 77 76 76 75 74 73 69 69 72 76 76 75 73 73
11 7 5 10 11 11 17 19 17 18 18 17 19 24 31 33 40 24 35 40 41 56 61 63 64 68 69 70 73 76 77 76 76 74 75 73 73 72 73 75 75 75 75 73
10 9 4 5 7 9 14 13 19 18 14 16 21 16 27 38 35 33 40 42 43 52 56 64 66 69 70 70 72 75 76 75 75 74 74 74 74 75 73 74 74 73 73 72
16 10 11 9 5 7 9 14 18 18 15 14 22 15 29 31 34 34 40 44 46 52 55 63 67 69 71 71 72 74 75 74 74 73 73 74 75 75 75 74 73 71 71 70
15 11 6 12 10 14 16 15 17 24 18 25 36 31 29 36 35 37 35 38 46 51 55 59 65 69 70 70 71 72 74 74 73 72 73 75 75 75 75 73 71 70 69 70
13 13 8 8 9 11 18 16 14 18 18 15 33 33 32 31 33 36 41 44 49 50 55 58 64 67 70 70 71 72 74 74 73 72 73 74 74 70 70 72 73 70 71 69
18 18 14 9 10 13 14 18 17 16 25 24 17 31 35 37 36 44 47 51 55 54 56 60 64 67 68 69 71 72 72 73 72 71 71 69 69 69 70 69 70 71 71 70
13 19 19 13 14 15 16 17 25 18 20 24 33 37 46 47 47 47 51 54 56 55 57 60 63 66 67 69 69 71 72 72 71 69 68 68 67 69 69 68 70 70 71 70
16 15 18 17 14 17 16 19 22 20 32 26 35 33 40 46 48 49 49 53 54 54 56 61 62 67 67 67 68 69 71 72 71 68 66 66 64 66 69 67 69 69 69 70
22 18 15 20 17 20 19 16 21 27 36 34 28 30 38 41 42 49 52 54 57 58 59 62 66 69 69 68 70 70 71 71 69 68 66 66 68 69 69 68 69 69 69 68
35 26 28 11 21 19 23 19 19 25 28 28 22 34 45 48 49 54 55 58 57 60 63 65 69 71 72 71 71 71 69 68 68 67 65 68 69 70 68 69 69 69 69 67
28 36 25 20 17 16 18 18 19 19 21 22 24 40 48 49 51 53 55 56 56 58 62 67 69 72 72 71 71 69 68 67 67 67 67 68 71 69 68 68 69 68 69 67
26 33 28 23 19 16 15 16 21 19 20 20 25 43 50 52 51 52 53 54 53 56 57 63 66 71 71 71 69 69 67 67 67 68 68 69 70 69 67 69 68 69 68 68
38 33 37 26 22 20 19 18 16 20 24 23 25 43 49 48 45 49 56 53 53 55 59 63 65 70 72 71 70 68 67 68 68 68 69 69 70 68 68 68 66 66 68 69
45 52 39 29 32 24 24 20 15 17 24 32 43 44 47 51 48 56 60 56 58 59 57 61 65 71 71 70 70 69 69 69 68 69 69 70 70 68 67 67 67 66 66 66
35 44 39 33 26 26 23 25 19 18 23 28 48 47 48 52 56 56 62 63 63 65 66 68 69 71 72 70 69 69 68 69 69 69 70 70 70 69 68 68 68 69 67 65
32 50 37 37 30 26 32 40 39 25 28 49 49 49 51 55 51 56 61 62 63 65 66 67 68 70 72 72 72 72 69 68 68 69 71 71 70 70 69 69 69 67 67 66
33 38 35 32 33 32 52 45 42 36 46 47 49 49 47 53 57 60 57 65 66 66 66 67 70 71 72 73 72 71 71 69 69 69 71 71 71 70 70 70 70 68 67 65
37 37 31 35 34 33 57 46 48 57 58 50 50 57 61 61 58 55 62 65 66 66 65 66 69 70 71 73 72 71 71 72 71 72 71 71 70 69 69 70 69 68 68 67
37 51 47 46 44 54 57 60 61 60 55 57 51 56 60 58 59 60 63 64 64 65 66 66 65 66 68 69 70 71 71 71 70 69 71 71 71 70 71 69 68 67 67 66
45 48 50 51 50 48 53 62 64 64 56 56 51 52 52 54 57 60 63 64 64 64 64 66 65 64 64 66 67 67 68 68 67 67 69 69 68 67 65 66 67 67 66 66
46 48 48 49 56 59 60 59 61 61 59 56 55 56 57 59 59 62 64 65 64 64 64 65 64 63 63 64 64 64 65 65 66 67 66 66 66 63 60 56 54 58 64 63
47 50 49 49 55 55 59 59 58 59 56 56 57 57 59 60 60 62 62 62 63 62 63 64 63 63 64 63 63 64 65 64 64 63 63 64 64 61 58 56 54 48 46 48